FW4335 Weather Reports


time (UTC)temp
C
wind
direction
speed
KPH
gust
KPH
rain 1hr
cm
rain 24hr
cm
rain mn
cm
humidity
%
barometer
mb
20260508104533 5 214 1.6 8.0 0.00 0.00 0.00 88 1018.9
20260508100035 5 210 1.6 6.4 0.00 0.00 0.00 85 1018.9
20260508094533 5 214 1.6 6.4 0.00 0.00 0.00 84 1018.9
20260508093035 5 183 0.0 4.8 0.00 0.00 0.00 83 1018.8
20260508091536 6 157 0.0 3.2 0.00 0.00 0.00 83 1018.8
20260508090142 6 193 1.6 6.4 0.00 0.00 0.00 82 1018.7
20260508084608 6 211 0.0 6.4 0.00 0.00 0.00 80 1018.7
20260508083030 6 217 1.6 8.0 0.00 0.00 0.00 79 1018.7
20260508080106 6 201 0.0 6.4 0.00 0.00 0.00 77 1018.7
20260508074654 6 209 1.6 6.4 0.00 0.00 0.00 76 1018.8
20260508073106 7 219 0.0 4.8 0.00 0.00 0.00 75 1018.7
20260508071532 7 203 0.0 4.8 0.00 0.00 0.00 73 1018.8
20260508063036 7 225 0.0 4.8 0.00 0.00 0.00 69 1018.7
20260508061533 7 204 0.0 4.8 0.00 0.00 0.00 65 1018.7
20260508053034 8 180 0.0 0.0 0.00 0.00 0.00 64 1018.8
20260508051534 8 246 0.0 4.8 0.00 0.00 0.00 63 1018.8
20260508050035 8 185 0.0 3.2 0.00 0.00 0.00 61 1018.8
20260508044536 9 192 0.0 6.4 0.00 0.00 0.00 60 1018.8
20260508041532 11 191 1.6 4.8 0.00 0.00 0.00 55 1018.7
20260508040109 11 204 0.0 4.8 0.00 0.00 0.00 51 1018.5
20260508034537 12 206 1.6 4.8 0.00 0.00 0.00 47 1018.4
20260508033035 13 194 0.0 3.2 0.00 0.00 0.00 43 1018.2
20260508031532 15 202 1.6 6.4 0.00 0.00 0.00 36 1018.2
20260508030036 16 235 0.0 3.2 0.00 0.00 0.00 30 1018.0
20260508024535 17 240 0.0 4.8 0.00 0.00 0.00 28 1018.0
20260508020029 19 323 0.0 4.8 0.00 0.00 0.00 27 1017.6
20260508014531 20 318 1.6 11.3 0.00 0.00 0.00 26 1017.4
20260508013037 20 319 1.6 11.3 0.00 0.00 0.00 25 1017.5
20260508011533 21 313 3.2 11.3 0.00 0.00 0.00 25 1017.6
20260508004606 21 319 1.6 11.3 0.00 0.00 0.00 24 1017.6
20260508003034 21 318 3.2 12.9 0.00 0.00 0.00 25 1017.5
20260507234530 22 315 3.2 14.5 0.00 0.00 0.00 30 1017.4
20260507231532 22 318 3.2 14.5 0.00 0.00 0.00 30 1017.6
20260507230035 22 308 3.2 12.9 0.00 0.00 0.00 31 1017.7
20260507224530 22 328 3.2 12.9 0.00 0.00 0.00 32 1017.8
20260507223033 22 323 3.2 11.3 0.00 0.00 0.00 32 1017.9
20260507221607 22 321 3.2 12.9 0.00 0.00 0.00 33 1018.1
20260507220037 22 323 3.2 11.3 0.00 0.00 0.00 35 1018.2
20260507214530 22 327 1.6 12.9 0.00 0.00 0.00 37 1018.4
20260507213036 22 316 3.2 12.9 0.00 0.00 0.00 41 1018.5
20260507210035 22 318 3.2 9.7 0.00 0.00 0.00 40 1018.7
20260507204535 22 327 1.6 9.7 0.00 0.00 0.00 41 1018.8
20260507203035 22 321 1.6 9.7 0.00 0.00 0.00 42 1019.0
20260507201534 22 320 3.2 12.9 0.00 0.00 0.00 43 1019.1
20260507200037 21 314 3.2 12.9 0.00 0.00 0.00 46 1019.3
20260507191529 20 327 3.2 12.9 0.00 0.00 0.00 48 1019.7
20260507190034 20 328 3.2 11.3 0.00 0.00 0.00 50 1019.9
20260507184535 18 347 4.8 11.3 0.00 0.00 0.00 52 1020.3
20260507181532 18 345 3.2 12.9 0.00 0.00 0.00 52 1020.4
20260507180034 18 30 4.8 11.3 0.00 0.00 0.00 51 1020.5
20260507173148 18 44 1.6 9.7 0.00 0.00 0.00 55 1020.9
20260507171534 17 41 3.2 9.7 0.00 0.00 0.00 55 1021.0
20260507170032 17 54 0.0 9.7 0.00 0.00 0.00 59 1021.0
20260507164534 16 341 1.6 9.7 0.00 0.00 0.00 62 1021.2
20260507163031 16 328 3.2 9.7 0.00 0.00 0.00 64 1021.2
20260507161643 15 334 3.2 11.3 0.00 0.00 0.00 66 1021.3
20260507160032 15 335 3.2 9.7 0.00 0.00 0.00 67 1021.5
20260507154531 15 337 3.2 11.3 0.00 0.00 0.00 67 1021.6
20260507153107 15 338 1.6 6.4 0.00 0.00 0.00 69 1021.6
20260507151535 14 320 1.6 8.0 0.00 0.00 0.00 72 1021.7
20260507150039 13 315 1.6 6.4 0.00 0.00 0.00 76 1021.8
20260507143037 11 279 1.6 6.4 0.00 0.00 0.00 87 1021.8
20260507141530 10 179 0.0 4.8 0.00 0.00 0.00 89 1021.6
20260507134535 8 154 0.0 4.8 0.00 0.00 0.00 90 1021.2
20260507133029 7 193 0.0 3.2 0.00 0.00 0.00 89 1021.1
20260507130030 8 202 0.0 3.2 0.00 0.00 0.00 87 1021.0
20260507124534 8 202 1.6 4.8 0.00 0.00 0.00 85 1021.0
20260507121532 10 197 0.0 4.8 0.00 0.00 0.00 83 1021.0
20260507120031 10 290 0.0 4.8 0.00 0.00 0.00 84 1021.0
20260507114535 10 310 0.0 4.8 0.00 0.00 0.00 85 1020.9
20260507113034 10 337 0.0 0.0 0.00 0.00 0.00 86 1020.8
20260507111535 10 326 0.0 6.4 0.00 0.00 0.00 86 1020.7
20260507110035 10 257 0.0 3.2 0.00 0.00 0.00 85 1020.6